| time (UTC) | temp F | wind direction | speed knots | gust knots | rain 1hr in | rain 24hr in | rain mn in | humidity % | barometer mb |
| 20260507040059 | 56 | 269 | 1.7 | 3.5 | 0.00 | 0.00 | 0.00 | 84 | 1018.6 |
| 20260507034607 | 56 | 270 | 1.7 | 3.5 | 0.00 | 0.00 | 0.00 | 83 | 1018.7 |
| 20260507033057 | 57 | 250 | 1.7 | 5.2 | 0.00 | 0.00 | 0.00 | 82 | 1018.5 |
| 20260507031558 | 57 | 253 | 1.7 | 5.2 | 0.00 | 0.00 | 0.00 | 81 | 1018.2 |
| 20260507024559 | 59 | 248 | 2.6 | 7.0 | 0.00 | 0.00 | 0.00 | 78 | 1018.0 |
| 20260507023113 | 61 | 252 | 3.5 | 7.0 | 0.00 | 0.00 | 0.00 | 75 | 1017.7 |
| 20260507021557 | 62 | 291 | 3.5 | 7.8 | 0.00 | 0.00 | 0.00 | 73 | 1017.9 |
| 20260507020058 | 64 | 294 | 2.6 | 6.1 | 0.00 | 0.00 | 0.00 | 70 | 1017.9 |
| 20260507014607 | 66 | 293 | 1.7 | 7.0 | 0.00 | 0.00 | 0.00 | 67 | 1017.7 |
| 20260507013113 | 65 | 270 | 2.6 | 6.1 | 0.00 | 0.00 | 0.00 | 69 | 1017.8 |
| 20260507011558 | 66 | 287 | 2.6 | 6.1 | 0.00 | 0.00 | 0.00 | 67 | 1017.9 |
| 20260507010056 | 66 | 320 | 3.5 | 6.1 | 0.00 | 0.00 | 0.00 | 68 | 1017.7 |
| 20260507004557 | 67 | 297 | 2.6 | 6.1 | 0.00 | 0.00 | 0.00 | 66 | 1017.8 |
| 20260507003101 | 69 | 250 | 1.7 | 4.3 | 0.00 | 0.00 | 0.00 | 65 | 1017.9 |
| 20260507001621 | 68 | 316 | 2.6 | 5.2 | 0.00 | 0.00 | 0.00 | 66 | 1017.8 |
| 20260507000101 | 68 | 290 | 2.6 | 6.1 | 0.00 | 0.00 | 0.00 | 65 | 1017.9 |
| 20260506234602 | 69 | 281 | 1.7 | 7.8 | 0.00 | 0.00 | 0.00 | 66 | 1017.9 |
| 20260506233107 | 68 | 312 | 2.6 | 7.0 | 0.00 | 0.00 | 0.00 | 66 | 1018.0 |
| 20260506231600 | 69 | 310 | 2.6 | 6.1 | 0.00 | 0.00 | 0.00 | 64 | 1017.9 |
| 20260506224604 | 72 | 39 | 2.6 | 5.2 | 0.00 | 0.00 | 0.00 | 60 | 1018.2 |
| 20260506223126 | 77 | 325 | 1.7 | 3.5 | 0.00 | 0.00 | 0.00 | 51 | 1018.3 |
| 20260506221604 | 80 | 321 | 0.0 | 1.7 | 0.00 | 0.00 | 0.00 | 46 | 1018.4 |
| 20260506220100 | 81 | 0 | 0.0 | 7.0 | 0.00 | 0.00 | 0.00 | 45 | 1018.5 |
| 20260506214609 | 82 | 349 | 0.0 | 1.7 | 0.00 | 0.00 | 0.00 | 43 | 1018.7 |
| 20260506213057 | 83 | 0 | 0.0 | 2.6 | 0.00 | 0.00 | 0.00 | 42 | 1018.9 |
| 20260506211558 | 81 | 0 | 0.0 | 5.2 | 0.00 | 0.00 | 0.00 | 44 | 1019.2 |
| 20260506204558 | 81 | 301 | 0.0 | 1.7 | 0.00 | 0.00 | 0.00 | 43 | 1019.2 |
| 20260506203102 | 81 | 0 | 0.0 | 2.6 | 0.00 | 0.00 | 0.00 | 44 | 1019.4 |
| 20260506201556 | 80 | 316 | 0.0 | 0.9 | 0.00 | 0.00 | 0.00 | 47 | 1019.6 |
| 20260506200150 | 78 | 0 | 0.0 | 1.7 | 0.00 | 0.00 | 0.00 | 48 | 1019.9 |
| 20260506194614 | 76 | 0 | 0.0 | 2.6 | 0.00 | 0.00 | 0.00 | 50 | 1019.9 |
| 20260506193059 | 75 | 356 | 0.0 | 2.6 | 0.00 | 0.00 | 0.00 | 52 | 1020.1 |
| 20260506191601 | 74 | 0 | 0.0 | 2.6 | 0.00 | 0.00 | 0.00 | 56 | 1020.1 |
| 20260506190057 | 73 | 311 | 0.0 | 1.7 | 0.00 | 0.00 | 0.00 | 57 | 1020.3 |
| 20260506184558 | 72 | 0 | 0.0 | 1.7 | 0.00 | 0.00 | 0.00 | 58 | 1020.3 |
| 20260506183058 | 70 | 300 | 0.0 | 1.7 | 0.00 | 0.00 | 0.00 | 60 | 1020.4 |
| 20260506181557 | 70 | 351 | 0.0 | 1.7 | 0.00 | 0.00 | 0.00 | 61 | 1020.5 |
| 20260506180107 | 68 | 0 | 0.0 | 1.7 | 0.00 | 0.00 | 0.00 | 62 | 1020.4 |
| 20260506174556 | 66 | 0 | 0.0 | 0.9 | 0.00 | 0.00 | 0.00 | 66 | 1020.3 |
| 20260506173122 | 66 | 0 | 0.0 | 0.9 | 0.00 | 0.00 | 0.00 | 65 | 1020.4 |
| 20260506171602 | 66 | 328 | 0.0 | 1.7 | 0.00 | 0.00 | 0.00 | 67 | 1020.4 |
| 20260506170059 | 63 | 0 | 0.0 | 0.9 | 0.00 | 0.00 | 0.00 | 71 | 1020.4 |
| 20260506164558 | 61 | 0 | 0.0 | 0.9 | 0.00 | 0.00 | 0.00 | 75 | 1020.5 |
| 20260506163106 | 59 | 0 | 0.0 | 0.9 | 0.00 | 0.00 | 0.00 | 78 | 1020.5 |
| 20260506161559 | 60 | 0 | 0.0 | 0.0 | 0.00 | 0.00 | 0.00 | 77 | 1020.5 |
| 20260506160109 | 59 | 0 | 0.0 | 0.0 | 0.00 | 0.00 | 0.00 | 79 | 1020.5 |
| 20260506154600 | 59 | 0 | 0.0 | 0.0 | 0.00 | 0.00 | 0.00 | 81 | 1020.5 |
| 20260506153058 | 58 | 0 | 0.0 | 0.0 | 0.00 | 0.00 | 0.00 | 84 | 1020.5 |
| 20260506151600 | 56 | 0 | 0.0 | 0.0 | 0.00 | 0.00 | 0.00 | 86 | 1020.4 |
| 20260506150104 | 56 | 0 | 0.0 | 0.0 | 0.00 | 0.00 | 0.00 | 87 | 1020.3 |
| 20260506144602 | 55 | 0 | 0.0 | 0.9 | 0.00 | 0.00 | 0.00 | 88 | 1020.2 |
| 20260506143057 | 54 | 0 | 0.0 | 1.7 | 0.00 | 0.00 | 0.00 | 89 | 1020.3 |
| 20260506141559 | 54 | 296 | 0.0 | 1.7 | 0.00 | 0.00 | 0.00 | 89 | 1020.2 |
| 20260506140059 | 53 | 278 | 0.9 | 1.7 | 0.00 | 0.00 | 0.00 | 90 | 1020.1 |
| 20260506134618 | 53 | 278 | 0.0 | 1.7 | 0.00 | 0.00 | 0.00 | 90 | 1019.9 |
| 20260506133100 | 53 | 278 | 0.0 | 2.6 | 0.00 | 0.00 | 0.00 | 90 | 1019.8 |
| 20260506131611 | 53 | 322 | 0.9 | 1.7 | 0.00 | 0.00 | 0.00 | 91 | 1019.6 |
| 20260506130059 | 53 | 311 | 0.0 | 0.9 | 0.00 | 0.00 | 0.00 | 91 | 1019.5 |
| 20260506124603 | 53 | 288 | 0.0 | 0.9 | 0.00 | 0.00 | 0.00 | 91 | 1019.4 |
| 20260506123058 | 52 | 0 | 0.0 | 0.0 | 0.00 | 0.00 | 0.00 | 91 | 1019.3 |
| 20260506121609 | 52 | 0 | 0.0 | 0.9 | 0.00 | 0.00 | 0.00 | 90 | 1019.4 |
| 20260506114600 | 53 | 300 | 0.0 | 0.9 | 0.00 | 0.00 | 0.00 | 90 | 1018.9 |
| 20260506113107 | 53 | 0 | 0.0 | 1.7 | 0.00 | 0.00 | 0.00 | 90 | 1019.0 |
| 20260506111622 | 53 | 302 | 0.9 | 1.7 | 0.00 | 0.00 | 0.00 | 90 | 1019.1 |
| 20260506110101 | 53 | 306 | 0.0 | 0.9 | 0.00 | 0.00 | 0.00 | 91 | 1018.8 |
| 20260506104605 | 53 | 0 | 0.0 | 0.0 | 0.00 | 0.00 | 0.00 | 90 | 1018.7 |
| 20260506103104 | 53 | 0 | 0.0 | 0.0 | 0.00 | 0.00 | 0.00 | 89 | 1018.7 |
| 20260506101558 | 54 | 0 | 0.0 | 0.9 | 0.00 | 0.00 | 0.00 | 89 | 1018.6 |
| 20260506100103 | 54 | 0 | 0.0 | 0.9 | 0.00 | 0.00 | 0.00 | 89 | 1018.7 |
| 20260506094556 | 54 | 0 | 0.0 | 0.0 | 0.00 | 0.00 | 0.00 | 88 | 1018.6 |
| 20260506093058 | 55 | 0 | 0.0 | 0.0 | 0.00 | 0.00 | 0.00 | 87 | 1018.7 |
| 20260506091556 | 55 | 0 | 0.0 | 0.9 | 0.00 | 0.00 | 0.00 | 87 | 1018.6 |
| 20260506090100 | 55 | 0 | 0.0 | 0.0 | 0.00 | 0.00 | 0.00 | 87 | 1018.6 |
| 20260506084605 | 55 | 0 | 0.0 | 0.9 | 0.00 | 0.00 | 0.00 | 87 | 1018.6 |
| 20260506083114 | 55 | 0 | 0.0 | 0.9 | 0.00 | 0.00 | 0.00 | 87 | 1018.7 |
| 20260506081557 | 55 | 0 | 0.0 | 0.9 | 0.00 | 0.00 | 0.00 | 86 | 1018.8 |
| 20260506073056 | 55 | 295 | 0.0 | 0.0 | 0.00 | 0.00 | 0.00 | 84 | 1018.7 |
| 20260506071557 | 55 | 0 | 0.0 | 0.0 | 0.00 | 0.00 | 0.00 | 83 | 1018.6 |
| 20260506070127 | 55 | 0 | 0.0 | 0.9 | 0.00 | 0.00 | 0.00 | 83 | 1018.4 |
| 20260506061607 | 55 | 0 | 0.0 | 0.0 | 0.00 | 0.00 | 0.00 | 83 | 1018.2 |
| 20260506050109 | 55 | 278 | 0.0 | 1.7 | 0.00 | 0.00 | 0.00 | 82 | 1017.5 |
| 20260506044601 | 56 | 288 | 0.9 | 2.6 | 0.00 | 0.00 | 0.00 | 82 | 1017.5 |
| 20260506043059 | 56 | 281 | 0.9 | 1.7 | 0.00 | 0.00 | 0.00 | 81 | 1017.5 |
| 20260506041606 | 56 | 283 | 0.9 | 3.5 | 0.00 | 0.00 | 0.00 | 81 | 1017.3 |